• In Latvia
  • List of Countries
  • For 7 days
  • Water Temperature
  • Satellite Maps
  • Weather Map
  • Weather Widgets
  • user-avatar
    Login

    Hourly Weather Ngozi

    Today, 12 December, Tuesday

    Time Temperature Precipitation Wind Pressure Humidity
    00:00 +15°C° 0.1 mm 0 mps 618 mmHg 89%
    01:00 +15°C° 0.1 mm 0 mps 618 mmHg 90%
    02:00 +15°C° 0 mm 0 mps 618 mmHg 92%
    03:00 +15°C° 0 mm 0 mps 618 mmHg 93%
    04:00 +14°C° 0 mm 0 mps 617 mmHg 94%
    05:00 +14°C° 0 mm 0 mps 617 mmHg 95%
    06:00 +16°C° 0 mm 0 mps 618 mmHg 88%
    07:00 +17°C° 0 mm 0 mps 619 mmHg 82%
    08:00 +19°C° 0 mm 0 mps 620 mmHg 75%
    09:00 +23°C° 0 mm 1 mps 620 mmHg 65%
    10:00 +25°C° 0 mm 2 mps 620 mmHg 56%
    11:00 +26°C° 0 mm 2 mps 621 mmHg 46%
    12:00 +27°C° 0 mm 2 mps 620 mmHg 46%
    13:00 +27°C° 0 mm 2 mps 620 mmHg 46%
    14:00 +27°C° 0 mm 2 mps 620 mmHg 46%
    15:00 +26°C° 0.2 mm 2 mps 619 mmHg 55%
    16:00 +24°C° 0.2 mm 2 mps 618 mmHg 64%
    17:00 +23°C° 0.2 mm 2 mps 617 mmHg 73%
    18:00 +21°C° 0.5 mm 1 mps 618 mmHg 79%
    19:00 +19°C° 0.5 mm 1 mps 618 mmHg 84%
    20:00 +16°C° 0.5 mm 0 mps 618 mmHg 90%
    21:00 +16°C° 0.2 mm 0 mps 618 mmHg 91%
    22:00 +15°C° 0.2 mm 0 mps 618 mmHg 91%
    23:00 +15°C° 0.2 mm 0 mps 618 mmHg 92%

    Tomorrow, 13 December, Wednesday

    Time Temperature Precipitation Wind Pressure Humidity
    00:00 +15°C° 0 mm 0 mps 618 mmHg 92%
    01:00 +15°C° 0 mm 0 mps 618 mmHg 92%
    02:00 +15°C° 0 mm 1 mps 617 mmHg 92%
    03:00 +15°C° 0 mm 1 mps 617 mmHg 93%
    04:00 +15°C° 0 mm 1 mps 617 mmHg 93%
    05:00 +14°C° 0 mm 1 mps 617 mmHg 93%
    06:00 +16°C° 0 mm 1 mps 618 mmHg 86%
    07:00 +17°C° 0 mm 0 mps 619 mmHg 79%
    08:00 +19°C° 0 mm 0 mps 620 mmHg 72%
    09:00 +24°C° 0 mm 1 mps 620 mmHg 63%
    10:00 +26°C° 0 mm 1 mps 621 mmHg 53%
    11:00 +28°C° 0 mm 2 mps 621 mmHg 43%
    12:00 +28°C° 0 mm 2 mps 620 mmHg 44%
    13:00 +27°C° 0 mm 2 mps 620 mmHg 44%
    14:00 +27°C° 0 mm 2 mps 619 mmHg 45%
    15:00 +27°C° 0 mm 2 mps 618 mmHg 49%
    16:00 +26°C° 0 mm 1 mps 618 mmHg 53%
    17:00 +25°C° 0 mm 1 mps 618 mmHg 57%
    18:00 +23°C° 0 mm 1 mps 617 mmHg 65%
    19:00 +20°C° 0 mm 1 mps 617 mmHg 73%
    20:00 +16°C° 0 mm 0 mps 617 mmHg 81%
    21:00 +16°C° 0 mm 0 mps 617 mmHg 82%
    22:00 +15°C° 0 mm 0 mps 618 mmHg 84%
    23:00 +16°C° 0 mm 1 mps 618 mmHg 86%

    Day after tomorrow, 14 December, Thursday

    Time Temperature Precipitation Wind Pressure Humidity
    00:00 +15°C° 0 mm 1 mps 618 mmHg 87%
    01:00 +15°C° 0 mm 1 mps 617 mmHg 88%
    02:00 +15°C° 0 mm 1 mps 617 mmHg 89%
    03:00 +14°C° 0 mm 1 mps 617 mmHg 89%
    04:00 +14°C° 0 mm 1 mps 617 mmHg 89%
    05:00 +14°C° 0 mm 1 mps 617 mmHg 89%
    06:00 +16°C° 0 mm 1 mps 618 mmHg 80%
    07:00 +20°C° 0 mm 1 mps 619 mmHg 70%
    08:00 +22°C° 0 mm 1 mps 620 mmHg 61%
    09:00 +24°C° 0 mm 1 mps 621 mmHg 53%
    10:00 +27°C° 0 mm 1 mps 621 mmHg 44%
    11:00 +29°C° 0 mm 1 mps 622 mmHg 36%
    12:00 +29°C° 0 mm 1 mps 621 mmHg 36%
    13:00 +29°C° 0 mm 2 mps 620 mmHg 37%
    14:00 +29°C° 0 mm 2 mps 619 mmHg 37%
    15:00 +27°C° 0 mm 2 mps 619 mmHg 43%
    16:00 +26°C° 0 mm 2 mps 618 mmHg 48%
    17:00 +25°C° 0 mm 1 mps 618 mmHg 53%
    18:00 +23°C° 0 mm 1 mps 617 mmHg 59%
    19:00 +19°C° 0 mm 0 mps 617 mmHg 66%
    20:00 +17°C° 0 mm 0 mps 617 mmHg 73%
    21:00 +16°C° 0 mm 0 mps 617 mmHg 74%
    22:00 +16°C° 0 mm 0 mps 617 mmHg 75%
    23:00 +16°C° 0 mm 1 mps 618 mmHg 76%

    15 December, Friday

    Time Temperature Precipitation Wind Pressure Humidity
    00:00 +16°C° 0 mm 1 mps 617 mmHg 76%
    01:00 +15°C° 0 mm 1 mps 617 mmHg 77%
    02:00 +15°C° 0 mm 1 mps 616 mmHg 77%
    03:00 +15°C° 0 mm 1 mps 616 mmHg 75%
    04:00 +15°C° 0 mm 1 mps 617 mmHg 74%
    05:00 +15°C° 0 mm 1 mps 617 mmHg 72%
    06:00 +18°C° 0 mm 1 mps 618 mmHg 67%
    07:00 +20°C° 0 mm 1 mps 619 mmHg 61%
    08:00 +22°C° 0 mm 1 mps 620 mmHg 56%
    09:00 +24°C° 0 mm 1 mps 621 mmHg 51%
    10:00 +26°C° 0 mm 1 mps 621 mmHg 46%
    11:00 +29°C° 0 mm 1 mps 622 mmHg 40%
    12:00 +28°C° 0.1 mm 1 mps 621 mmHg 42%
    13:00 +27°C° 0.1 mm 2 mps 620 mmHg 44%
    14:00 +27°C° 0.1 mm 2 mps 619 mmHg 46%
    15:00 +25°C° 0.4 mm 2 mps 618 mmHg 54%
    16:00 +24°C° 0.4 mm 1 mps 618 mmHg 62%
    17:00 +22°C° 0.4 mm 1 mps 617 mmHg 70%
    18:00 +21°C° 0.1 mm 1 mps 617 mmHg 74%
    19:00 +19°C° 0.1 mm 1 mps 617 mmHg 79%
    20:00 +18°C° 0.1 mm 1 mps 617 mmHg 83%
    21:00 +16°C° 0 mm 1 mps 617 mmHg 85%
    22:00 +16°C° 0 mm 1 mps 617 mmHg 86%
    23:00 +15°C° 0 mm 1 mps 617 mmHg 88%

    16 December, Saturday

    Time Temperature Precipitation Wind Pressure Humidity
    00:00 +15°C° 0 mm 1 mps 616 mmHg 87%
    01:00 +15°C° 0 mm 1 mps 616 mmHg 87%
    02:00 +14°C° 0 mm 1 mps 616 mmHg 87%
    03:00 +14°C° 0 mm 1 mps 616 mmHg 86%
    04:00 +14°C° 0 mm 1 mps 616 mmHg 86%
    05:00 +13°C° 0 mm 0 mps 616 mmHg 85%
    06:00 +15°C° 0 mm 0 mps 617 mmHg 78%
    07:00 +17°C° 0 mm 0 mps 618 mmHg 71%
    08:00 +19°C° 0 mm 0 mps 619 mmHg 65%
    09:00 +23°C° 0 mm 1 mps 620 mmHg 58%
    10:00 +26°C° 0 mm 1 mps 621 mmHg 51%
    11:00 +28°C° 0 mm 1 mps 621 mmHg 44%
    12:00 +27°C° 0.1 mm 1 mps 620 mmHg 48%
    13:00 +26°C° 0.1 mm 2 mps 619 mmHg 52%
    14:00 +25°C° 0.1 mm 2 mps 618 mmHg 56%
    15:00 +24°C° 0.3 mm 2 mps 618 mmHg 60%
    16:00 +23°C° 0.3 mm 1 mps 618 mmHg 64%
    17:00 +23°C° 0.3 mm 1 mps 617 mmHg 69%
    18:00 +21°C° 0.2 mm 1 mps 617 mmHg 75%
    19:00 +20°C° 0.2 mm 1 mps 617 mmHg 81%
    20:00 +16°C° 0.2 mm 0 mps 617 mmHg 87%
    21:00 +16°C° 0 mm 0 mps 617 mmHg 88%
    22:00 +16°C° 0 mm 0 mps 617 mmHg 89%
    23:00 +15°C° 0 mm 0 mps 618 mmHg 91%

    17 December, Sunday

    Time Temperature Precipitation Wind Pressure Humidity
    00:00 +15°C° 0 mm 0 mps 617 mmHg 91%
    01:00 +15°C° 0 mm 0 mps 617 mmHg 91%
    02:00 +15°C° 0 mm 0 mps 617 mmHg 91%
    03:00 +14°C° 0 mm 0 mps 617 mmHg 91%
    04:00 +15°C° 0 mm 1 mps 617 mmHg 91%
    05:00 +15°C° 0 mm 1 mps 617 mmHg 91%
    06:00 +16°C° 0 mm 1 mps 618 mmHg 84%
    07:00 +19°C° 0 mm 1 mps 619 mmHg 77%
    08:00 +21°C° 0 mm 1 mps 620 mmHg 70%
    09:00 +23°C° 0.1 mm 1 mps 620 mmHg 61%
    10:00 +26°C° 0.1 mm 1 mps 620 mmHg 53%
    11:00 +28°C° 0.1 mm 1 mps 621 mmHg 44%
    12:00 +27°C° 0.2 mm 1 mps 620 mmHg 48%
    13:00 +26°C° 0.2 mm 2 mps 619 mmHg 52%
    14:00 +25°C° 0.2 mm 2 mps 618 mmHg 56%
    15:00 +24°C° 0.6 mm 2 mps 617 mmHg 64%
    16:00 +23°C° 0.6 mm 1 mps 617 mmHg 72%
    17:00 +22°C° 0.6 mm 1 mps 617 mmHg 80%
    18:00 +20°C° 0.6 mm 1 mps 617 mmHg 83%
    19:00 +17°C° 0.6 mm 0 mps 617 mmHg 85%
    20:00 +16°C° 0.6 mm 0 mps 618 mmHg 88%
    21:00 +16°C° 0.1 mm 0 mps 618 mmHg 89%
    22:00 +15°C° 0.1 mm 0 mps 618 mmHg 91%
    23:00 +16°C° 0.1 mm 1 mps 617 mmHg 92%
    Show more